This demonstration page uses our WeatherBlox Daily Observations layout. Learn more.

Left ArrowRight Arrow

34.16533, -84.80231

Hourly Observations for October 2, 2015

Temp ( °F °C ) Dew Point ( °F °C ) Humidity (%) Winds ( mph kmh ) Pressure ( in mb ) Visibility ( mi km ) Precip ( " mm )
12:53 am 00:53 Cloudy with Light Rain 61 16.1 61 16.1 100 100 N 6 9 29.82 1010 6 10 0.01 0.25
1:53 am 01:53 Cloudy 61 16.1 60 15.6 97 97 N 6 9 29.80 1009 9 14 0.02 0.51
2:53 am 02:53 Cloudy 60 15.6 60 15.6 100 100 N 6 9 29.79 1009 10 16 0.01 0.25
3:53 am 03:53 Cloudy 60 15.6 60 15.6 100 100 N 5 7 29.79 1009 10 16 0.00 0.00
4:06 am 04:06 Cloudy 60 15.6 59 15 96 96 NNE 5 7 29.83 1010 10 16 0.00 0.00
4:38 am 04:38 Cloudy 60 15.6 59 15 96 96 N 7 11 29.83 1010 10 16 0.00 0.00
4:53 am 04:53 Cloudy 60 15.6 59 15 96 96 NNE 5 7 29.78 1009 10 16 0.00 0.00
5:16 am 05:16 Cloudy with Mist and Fog 60 15.6 59 15 96 96 VRB 3 6 29.83 1010 5 8 0.00 0.00
5:53 am 05:53 Cloudy 60 15.6 59 15 96 96 Calm 29.79 1009 10 16 0.00 0.00
6:11 am 06:11 Cloudy 60 15.6 59 15 96 96 NNE 3 6 29.83 1010 10 16 0.00 0.00
6:34 am 06:34 Cloudy 60 15.6 60 15.6 100 100 Calm 29.83 1010 10 16 0.00 0.00
6:53 am 06:53 Cloudy 60 15.6 59 15 96 96 NNE 6 9 29.80 1009 10 16 0.00 0.00
7:21 am 07:21 Cloudy with Light Rain 60 15.6 60 15.6 100 100 Calm 29.83 1010 10 16 0.00 0.03
7:50 am 07:50 Cloudy 61 16 61 16 100 100 Calm 29.83 1010 10 16 0.00 0.03
7:53 am 07:53 Cloudy 60 15.6 60 15.6 100 100 Calm 29.81 1009 10 16 0.00 0.03
8:53 am 08:53 Cloudy 61 16.1 60 15.6 97 97 Calm 29.81 1010 10 16 0.00 0.00
9:05 am 09:05 Cloudy 61 16.1 60 15.6 97 97 Calm 29.83 1010 10 16 0.00 0.00
9:41 am 09:41 Cloudy 63 17.2 61 16.1 93 93 NE 5 7 29.83 1010 10 16 0.00 0.00
9:53 am 09:53 Cloudy 63 17.2 60 15.6 90 90 ENE 3 6 29.81 1010 10 16 0.00 0.00
10:53 am 10:53 Cloudy 64 17.8 60 15.6 87 87 NNE 5 7 29.81 1009 10 16 0.00 0.00
11:53 am 11:53 Cloudy with Light Rain 64 17.8 61 16.1 90 90 VRB 6 9 29.81 1010 5 8 0.00 0.03
12:41 pm 12:41 Cloudy 65 18.3 60 15.6 84 84 E 8 13 29.83 1010 10 16 0.01 0.25
12:53 pm 12:53 Cloudy 65 18.3 60 15.6 84 84 E 7 11 29.81 1009 9 14 0.01 0.25
1:01 pm 13:01 Cloudy with Light Rain 64 17.8 60 15.6 87 87 E 8 13 29.83 1010 4 6 0.00 0.03
1:44 pm 13:44 Cloudy 65 18.3 62 16.7 90 90 VRB 7 11 29.83 1010 10 16 0.00 0.03
1:53 pm 13:53 Cloudy 66 18.9 60 15.6 81 81 ENE 8 13 29.79 1009 10 16 0.00 0.03
2:19 pm 14:19 Cloudy 65 18.3 61 16.1 87 87 ENE 8 13 29.80 1009 9 14 0.00 0.03
2:46 pm 14:46 Cloudy 66 18.9 60 15.6 81 81 NE 6 9 29.80 1009 10 16 0.00 0.03
2:53 pm 14:53 Cloudy 66 18.9 59 15 78 78 ENE 7 11 29.78 1008 10 16 0.00 0.03
3:26 pm 15:26 Cloudy 65 18.3 60 15.6 84 84 ESE 9 15 29.80 1009 10 16 0.00 0.00
3:53 pm 15:53 Cloudy 67 19.4 60 15.6 79 79 NE 9 15 29.76 1008 10 16 0.00 0.00
4:10 pm 16:10 Cloudy 66 18.9 59 15 78 78 ENE 6 9 29.80 1009 10 16 0.00 0.00
4:43 pm 16:43 Cloudy 65 18.3 61 16.1 87 87 N 8 13 29.80 1009 8 13 0.00 0.00
4:53 pm 16:53 Cloudy with Light Rain 64 17.8 62 16.7 93 93 N 5 7 29.76 1008 6 10 0.00 0.03
5:13 pm 17:13 Cloudy 63 17.2 62 16.7 97 97 VRB 6 9 29.80 1009 9 14 0.00 0.03
5:33 pm 17:33 Cloudy with Light Rain 63 17.2 62 16.7 97 97 N 6 9 29.80 1009 3 4 0.01 0.25
5:41 pm 17:41 Cloudy with Light Rain 62 16.7 62 16.7 100 100 N 6 9 29.80 1009 2 3 0.01 0.25
5:50 pm 17:50 Cloudy with Mist and Fog 63 17 63 17 100 100 N 5 7 29.80 1009 3 4 0.02 0.51
5:53 pm 17:53 Cloudy with Mist and Fog 62 16.7 62 16.7 100 100 N 6 9 29.76 1008 3 4 0.02 0.51
6:05 pm 18:05 Cloudy with Mist and Fog 63 17.2 62 16.7 97 97 N 5 7 29.80 1009 3 5 0.00 0.00
6:22 pm 18:22 Cloudy with Mist and Fog 62 16.7 61 16.1 96 96 N 5 7 29.80 1009 6 10 0.00 0.00
6:53 pm 18:53 Cloudy 63 17.2 61 16.1 93 93 N 7 11 29.76 1008 10 16 0.00 0.00
7:00 pm 19:00 Cloudy 63 17.2 61 16.1 93 93 N 3 6 29.80 1009 10 16 0.00 0.00
7:22 pm 19:22 Cloudy 63 17.2 61 16.1 93 93 N 6 9 29.80 1009 10 16 0.00 0.00
7:53 pm 19:53 Cloudy 62 16.7 61 16.1 96 96 NNE 7 11 29.76 1008 10 16 0.00 0.00
8:53 pm 20:53 Cloudy with Mist and Fog 62 16.7 61 16.1 96 96 Calm 29.77 1008 4 6 0.00 0.00
9:03 pm 21:03 Cloudy with Mist and Fog 62 16.7 61 16.1 96 96 Calm 29.80 1009 3 4 0.00 0.00
9:17 pm 21:17 Cloudy with Mist and Fog 62 16.7 61 16.1 96 96 NNE 5 7 29.80 1009 3 5 0.01 0.25
9:31 pm 21:31 Cloudy with Mist and Fog 62 16.7 61 16.1 96 96 NNE 3 6 29.80 1009 3 5 0.02 0.51
9:44 pm 21:44 Cloudy with Mist and Fog 62 16.7 61 16.1 96 96 Calm 29.80 1009 3 5 0.02 0.51
9:53 pm 21:53 Cloudy with Mist and Fog 62 16.7 61 16.1 96 96 NNE 5 7 29.76 1008 4 6 0.02 0.51
10:00 pm 22:00 Cloudy with Mist and Fog 62 16.7 61 16.1 96 96 N 5 7 29.80 1009 3 5 0.01 0.25
10:25 pm 22:25 Cloudy 62 16.7 61 16.1 96 96 Calm 29.80 1009 10 16 0.01 0.25

Powered by AerisWeather